Vancouver, British Columbia

8:13 PM PST on February 22, 2017 (GMT -0800)
Vancouver International Airport

Weather History for CYVR - February, 2013

Change the Weather History Date:

Friday, February 1, 2013

  Actual Average Record
Temperature  
Mean Temperature 44 °F -  
Max Temperature 49 °F 46 °F 53 °F (1998)
Min Temperature 39 °F 35 °F 23 °F (2017)
Degree Days  
Heating Degree Days 20    
Moisture  
Dew Point 41 °F    
Average Humidity 88    
Maximum Humidity 93    
Minimum Humidity 76    
Precipitation  
Precipitation 0.00 in 0.16 in - ()
Sea Level Pressure  
Sea Level Pressure 30.41 in    
Wind  
Wind Speed 5 mph ()    
Max Wind Speed 12 mph    
Max Gust Speed -    
Visibility 8.8 miles    
Events Fog    
Averages and records for this station are not official NWS values.
T = Trace of Precipitation, MM = Missing Value Source: Averaged Metar Reports

Daily Weather History Graph

Daily Weather History Graph

Search for Another Location

Airport or City:

Trip Planner

Search our weather history database for the weather conditions in past years. The results will help you decide how hot, cold, wet, or windy it might be!

Date:

Astronomy

Feb. 01, 2013 Rise Set
Actual Time 7:43 AM PST 5:10 PM PST
Civil Twilight 7:09 AM PST 5:44 PM PST
Nautical Twilight 6:30 AM PST 6:22 PM PST
Astronomical Twilight 5:53 AM PST 6:59 PM PST
Moon No Moon Rise 9:43 AM PST (2/1)
Length of Visible Light 10h 35m
Length of Day
9h 26m
Waning Gibbous, 69% of the Moon is Illuminated
Feb 1
Waning Gibbous
Feb 3
Last Quarter
Feb 9
New
Feb 17
First Quarter
Feb 25
Full

Hourly Weather History & Observations

Time (PST) Temp. Windchill Dew Point Humidity Pressure Visibility Wind Dir Wind Speed Gust Speed Precip Events Conditions
12:00 AM 44.6 °F 42.2 °F 42.8 °F 93% 30.34 in 6.0 mi West 4.6 mph - N/A   Overcast
1:00 AM 44.6 °F 43.1 °F 42.8 °F 93% 30.35 in 6.0 mi NW 3.5 mph - N/A   Overcast
2:00 AM 44.6 °F 40.2 °F 41.0 °F 87% 30.36 in 6.0 mi West 8.1 mph - N/A   Overcast
3:00 AM 42.8 °F 39.3 °F 41.0 °F 93% 30.37 in 6.0 mi West 5.8 mph - N/A   Overcast
4:00 AM 43 °F - 41 °F 88% 30.38 in 4 mi West 5.8 mph - -   Mist
4:00 AM 42.8 °F 38.6 °F 41.0 °F 93% 30.38 in 4.0 mi West 6.9 mph - N/A   Overcast
5:00 AM 42.8 °F 38.6 °F 41.0 °F 93% 30.39 in 4.0 mi West 6.9 mph - N/A   Overcast
6:00 AM 42.8 °F 41.1 °F 41.0 °F 93% 30.39 in 4.0 mi West 3.5 mph - N/A   Overcast
7:00 AM 42.8 °F 39.3 °F 41.0 °F 93% 30.40 in 6.0 mi West 5.8 mph - N/A   Overcast
8:00 AM 42.8 °F 39.3 °F 41.0 °F 93% 30.40 in 6.0 mi West 5.8 mph - N/A   Overcast
9:00 AM 44.6 °F 42.2 °F 41.0 °F 87% 30.43 in 8.0 mi NW 4.6 mph - N/A   Overcast
10:00 AM 45 °F - 41 °F 82% 30.43 in 7 mi NW 4.6 mph - -   Mostly Cloudy
10:00 AM 44.6 °F 42.2 °F 41.0 °F 87% 30.43 in 8.0 mi NW 4.6 mph - N/A   Mostly Cloudy
10:16 AM 44.6 °F 42.2 °F - N/A% - 12.0 mi WNW 4.6 mph - N/A   Mostly Cloudy
11:00 AM 46.4 °F 43.5 °F 41.0 °F 81% 30.44 in 12.0 mi NW 5.8 mph - N/A   Mostly Cloudy
12:00 PM 46.4 °F 45.2 °F 41.0 °F 81% 30.44 in 12.0 mi West 3.5 mph - N/A   Mostly Cloudy
1:00 PM 48.2 °F - 42.8 °F 82% 30.43 in 12.0 mi SW 3.5 mph - N/A   Mostly Cloudy
2:00 PM 48.2 °F - 41.0 °F 76% 30.43 in 12.0 mi WNW 2.3 mph - N/A   Mostly Cloudy
3:00 PM 46.4 °F 44.3 °F 41.0 °F 81% 30.43 in 12.0 mi West 4.6 mph - N/A   Mostly Cloudy
4:00 PM 46 °F - 41 °F 76% 30.42 in 12 mi WNW 9.2 mph - -   Scattered Clouds
4:00 PM 46.4 °F 42.4 °F 41.0 °F 81% 30.42 in 12.0 mi WNW 8.1 mph - N/A   Overcast
5:00 PM 42.8 °F 37.5 °F 39.2 °F 87% 30.43 in 15.0 mi WNW 9.2 mph - N/A   Mostly Cloudy
5:34 PM 42.8 °F 37.5 °F - N/A% - 6.0 mi WNW 9.2 mph - N/A   Mostly Cloudy
5:41 PM 41.0 °F 35.2 °F - N/A% - 0.5 mi WNW 9.2 mph - N/A Fog Fog
5:53 PM 42.8 °F 36.6 °F - N/A% - 1.0 mi WNW 11.5 mph - N/A   Mostly Cloudy
6:00 PM 42.8 °F 37.5 °F 39.2 °F 87% 30.43 in 1.2 mi WNW 9.2 mph - N/A   Mostly Cloudy
6:10 PM 42.8 °F 37.5 °F - N/A% - 2.0 mi NW 9.2 mph - N/A   Mostly Cloudy
6:28 PM 42.8 °F 37.5 °F - N/A% - 12.0 mi NW 9.2 mph - N/A   Mostly Cloudy
7:00 PM 41.0 °F 36.4 °F 39.2 °F 93% 30.43 in 15.0 mi NW 6.9 mph - N/A   Mostly Cloudy
8:00 PM 41.0 °F - 39.2 °F 93% 30.43 in 15.0 mi Calm Calm - N/A Fog Shallow Fog
9:00 PM 41.0 °F - 39.2 °F 93% 30.43 in 15.0 mi Calm Calm - N/A Fog Shallow Fog
10:00 PM 40 °F - 38 °F 89% 30.43 in 15 mi Calm Calm - -   Partly Cloudy
10:00 PM 41.0 °F - 37.4 °F 87% 30.43 in 15.0 mi Calm Calm - N/A   Mostly Cloudy
11:00 PM 39.2 °F 35.0 °F 37.4 °F 93% 30.44 in 15.0 mi NNW 5.8 mph - N/A   Mostly Cloudy